GFSMW_sfc_thetae_003.txt.gz
Theta_e
311 315 319 324 324 325 322 321 319 317 317 315 315 316 315 313 308 307 308 308 308 309 310 308 308 308 307 307 306 304 302 302 304 301 300 300 306 308 307 306 305 304 304
310 312 318 323 325 324 325 321 319 315 315 316 317 317 315 310 307 306 306 306 307 307 307 308 308 308 307 307 306 303 300 302 303 297 296 294 296 301 303 302 301 302 302
309 311 315 319 319 317 317 317 315 314 313 313 312 310 309 309 307 305 305 305 307 307 307 308 308 308 307 306 305 303 300 298 300 300 295 291 290 294 298 298 299 299 298
307 308 308 309 311 309 310 311 310 309 307 308 309 308 306 305 305 304 305 306 307 307 306 307 307 307 307 304 303 301 300 298 294 296 297 296 294 288 287 293 294 295 294
305 304 304 305 306 307 308 307 307 305 305 306 306 305 304 304 305 305 305 305 306 305 305 305 305 305 304 303 302 300 297 296 293 292 292 291 291 291 288 284 287 290 292
305 306 307 307 305 306 306 306 304 302 304 304 303 304 303 302 302 303 303 303 304 305 305 304 304 304 303 301 299 298 295 294 293 293 291 289 287 286 287 285 286 286 288
305 305 306 306 305 305 304 302 302 301 302 302 302 302 301 301 300 300 300 300 300 301 303 303 302 302 300 298 299 297 295 294 292 291 290 291 290 290 289 287 285 285 287
305 306 305 303 302 301 301 301 301 299 299 299 298 297 296 295 295 295 296 296 297 298 301 302 300 299 298 298 297 296 295 295 293 292 292 291 291 292 291 288 286 283 284
304 304 302 302 301 300 300 300 296 295 295 295 295 295 295 295 295 295 296 296 298 299 300 299 299 298 298 297 297 295 294 294 293 293 293 292 292 291 289 289 288 285 281
302 301 301 301 302 301 298 296 295 294 294 295 295 294 295 295 296 296 295 296 298 299 299 298 297 297 298 296 295 294 293 292 293 292 292 290 289 289 289 288 287 286 283
301 299 299 300 301 298 295 294 293 294 294 294 294 295 295 295 296 295 295 296 297 298 297 297 297 296 295 294 294 293 292 291 292 291 289 288 288 287 287 286 286 284 284
298 298 297 296 295 294 294 293 294 294 293 293 293 294 295 295 294 294 294 295 295 295 295 295 295 295 294 293 292 291 291 290 289 289 287 287 286 286 286 285 284 284 284
296 295 293 292 292 293 293 294 293 291 292 292 292 293 294 294 294 294 294 294 294 294 295 295 293 292 292 291 290 290 289 288 288 287 286 286 285 285 285 284 283 282 282
295 295 292 292 292 293 293 293 292 292 292 291 291 292 293 293 293 293 293 294 294 294 294 293 293 292 289 289 289 288 288 287 286 286 286 285 285 284 283 283 283 283 281
294 293 291 291 292 292 293 292 292 292 292 291 291 292 293 294 293 293 293 293 294 294 293 292 288 288 288 287 288 287 287 287 286 286 285 284 283 283 282 281 281 280 279
295 294 292 291 291 292 292 291 291 291 291 291 291 292 293 293 293 292 292 293 293 294 290 290 288 287 286 286 286 286 285 283 282 281 281 281 280 281 280 280 280 280 278
296 294 292 291 291 292 291 291 290 290 290 290 290 291 292 292 292 291 291 292 292 293 292 288 287 287 287 284 283 282 282 281 281 280 279 279 279 279 280 280 280 281 281
296 294 294 292 291 291 291 290 289 289 288 289 290 290 291 291 291 291 290 292 292 291 290 287 286 286 284 282 282 281 282 281 280 279 279 278 279 279 279 280 280 279 280
297 296 295 293 290 290 290 289 288 288 288 289 289 290 291 290 290 290 291 291 289 289 288 287 285 283 282 281 280 280 281 279 279 279 279 279 278 279 280 279 278 278 279
296 294 292 288 288 288 288 288 288 289 289 289 290 290 290 290 290 290 290 289 288 285 286 283 282 279 281 279 279 280 280 278 279 279 279 278 278 278 279 278 278 276 278
289 288 288 288 289 289 289 289 288 288 289 289 290 290 290 290 290 290 289 287 286 285 284 282 281 280 280 280 278 279 280 279 278 277 277 278 277 278 278 278 278 277 278
288 288 288 289 289 290 289 288 288 289 289 289 289 289 290 289 288 288 288 285 285 283 282 281 281 281 280 277 278 279 279 278 278 277 277 278 277 277 276 276 276 277 277
288 289 289 289 288 288 288 287 289 289 288 288 288 289 289 289 288 287 286 284 283 283 282 281 281 281 281 280 277 278 278 278 278 278 277 276 276 275 275 275 275 274 276
288 288 288 286 286 288 287 288 288 288 287 287 287 288 287 287 287 286 285 284 283 283 282 282 282 281 281 280 280 280 281 278 278 277 277 275 275 274 274 275 275 275 274
287 287 286 286 286 287 287 288 287 287 286 286 286 286 286 287 287 286 285 284 284 285 284 283 282 282 281 281 280 279 281 280 278 275 276 276 275 274 274 275 274 274 273
286 286 286 286 286 286 286 287 286 286 286 285 286 286 286 286 286 286 285 283 284 282 282 282 282 283 280 279 279 280 280 279 277 276 275 274 274 273 274 273 273 273 271

GFSMW_sfc_thetae_009.txt.gz
Theta_e
325 326 326 328 329 332 332 332 330 330 330 327 324 322 321 320 318 317 317 317 316 315 315 315 315 315 313 313 313 312 310 308 308 304 304 303 306 307 305 306 307 306 305
322 324 326 328 330 331 332 331 330 330 327 324 323 324 323 319 317 317 316 316 315 315 314 314 313 313 311 312 311 310 307 305 305 301 300 295 297 300 303 302 302 305 303
321 324 326 328 330 330 330 329 329 326 324 323 321 319 319 318 316 315 315 314 314 314 313 313 312 311 310 307 309 307 306 301 302 303 298 293 291 294 298 299 300 303 300
323 325 326 326 327 329 330 327 325 322 320 318 318 317 315 313 313 313 313 312 312 311 309 308 308 309 308 307 306 306 305 303 299 300 300 300 297 291 290 295 296 297 297
323 324 326 328 328 328 327 324 321 317 317 317 318 315 313 312 312 309 306 305 305 304 303 303 304 306 306 307 307 306 305 302 300 298 297 296 295 294 291 288 290 293 295
323 324 325 325 323 323 321 319 316 315 315 315 315 313 309 305 304 302 301 301 301 301 302 302 303 304 304 306 306 305 303 301 300 298 296 293 291 290 290 288 289 290 292
319 318 318 316 316 316 316 316 314 312 314 313 309 306 305 303 302 301 300 300 300 300 301 303 304 304 305 306 304 302 301 300 298 297 295 294 293 293 292 290 288 288 290
315 314 314 314 314 315 315 314 313 312 310 306 305 304 303 302 302 301 301 300 299 300 301 303 304 304 304 303 302 301 301 300 298 296 295 294 293 293 292 290 289 287 287
312 312 313 314 314 314 314 314 313 309 306 305 305 303 303 303 302 301 301 300 300 299 300 302 303 304 303 302 302 300 299 298 297 296 295 294 293 293 292 292 290 288 284
312 313 313 314 315 314 314 314 311 306 305 305 303 303 303 303 303 302 300 299 300 300 300 300 301 301 301 301 300 298 298 296 296 294 294 293 293 293 292 291 291 290 288
312 313 314 315 314 314 313 310 307 306 304 303 303 302 302 302 302 301 299 299 299 299 298 298 299 299 298 299 298 297 297 295 294 294 293 292 292 291 291 291 291 289 289
313 314 314 313 312 312 310 307 306 305 304 303 302 302 302 301 300 299 299 299 298 298 298 298 298 297 297 297 295 295 294 294 293 293 292 291 291 290 290 290 288 288 288
314 314 314 311 311 310 308 306 305 304 303 301 301 301 301 301 299 299 299 298 298 297 298 298 297 296 297 296 296 294 294 293 293 292 291 291 290 288 288 288 287 287 286
313 313 312 311 311 309 306 305 304 304 301 300 300 300 300 300 299 299 298 297 297 297 297 297 297 296 295 294 293 293 293 293 292 292 291 289 288 287 286 284 284 284 283
312 312 310 310 310 308 305 304 305 302 301 300 299 299 300 300 299 298 298 297 297 297 297 296 296 296 295 293 292 292 292 291 290 290 289 288 286 283 283 282 282 282 281
310 310 310 309 307 306 304 304 303 301 301 299 299 299 299 298 298 297 297 296 296 296 296 295 295 295 294 286 285 284 289 289 289 288 287 287 287 286 284 283 282 282 280
309 309 308 308 307 306 305 303 301 301 299 298 298 297 297 296 296 297 296 295 295 296 295 295 294 294 294 286 283 282 286 288 288 287 286 285 285 284 284 283 283 283 284
308 309 309 308 308 307 304 303 301 299 298 297 296 296 296 295 295 295 295 295 296 295 294 294 294 293 289 284 282 282 286 288 287 286 285 285 284 283 281 280 280 281 282
310 310 310 310 309 306 304 301 299 298 296 295 295 296 295 294 294 294 294 295 295 295 294 294 292 292 289 283 282 281 287 287 286 285 285 284 282 281 280 279 279 279 281
310 310 311 310 308 305 302 300 297 296 296 295 296 294 294 294 293 294 294 295 295 294 294 292 292 285 290 282 281 281 286 285 284 285 285 282 280 279 279 279 278 277 279
310 311 310 309 307 304 300 297 298 295 296 294 294 294 294 294 294 294 294 294 294 294 294 291 291 290 288 286 282 281 283 284 283 282 283 284 281 279 279 279 278 278 278
309 308 307 303 302 299 298 295 293 296 294 294 293 293 293 293 293 293 293 293 293 292 291 289 290 290 289 283 282 281 280 281 281 282 283 283 280 279 279 279 278 278 278
306 303 298 295 295 296 295 293 291 293 293 293 292 292 292 292 292 292 292 292 292 291 290 288 288 288 290 289 283 281 280 280 281 283 282 280 280 280 280 280 279 278 280
299 297 295 293 293 293 293 293 293 293 292 291 291 291 290 290 290 291 292 292 291 290 289 288 287 288 288 288 288 284 283 281 281 283 283 282 281 281 279 281 282 281 280
293 294 294 293 291 292 291 291 291 292 290 289 290 290 290 291 291 290 290 291 292 290 290 289 289 289 287 287 287 286 286 285 283 281 282 282 282 281 281 281 281 281 280
291 290 291 291 291 291 291 291 292 291 289 288 289 290 291 291 291 290 289 289 288 286 285 284 287 290 286 284 283 283 282 281 281 281 281 281 281 281 280 280 280 280 279

GFSMW_sfc_thetae_012.txt.gz
Theta_e
322 323 323 325 329 329 328 329 329 329 329 326 320 320 318 318 316 315 316 315 314 314 313 312 312 312 309 309 308 307 305 304 303 298 297 298 298 297 298 297 297 298 299
320 323 324 324 327 328 328 329 328 329 329 325 323 323 318 316 315 315 314 314 314 313 311 311 309 309 307 307 306 303 302 301 301 295 295 291 293 295 296 296 296 294 297
320 322 322 325 329 327 328 329 326 328 324 322 320 318 317 316 314 313 313 313 313 311 309 308 307 307 306 304 303 302 301 298 298 298 293 289 287 290 293 293 293 294 294
321 322 324 325 328 326 329 327 327 321 321 321 317 316 312 309 311 311 309 307 306 304 302 302 303 302 304 303 303 302 301 299 295 296 298 294 291 287 285 289 290 291 292
320 322 324 325 327 326 328 326 321 318 318 318 317 314 311 311 308 304 303 302 302 302 302 301 302 301 301 301 303 303 301 299 296 293 292 291 290 289 285 283 285 289 290
321 323 325 325 324 326 325 320 316 315 316 315 313 310 306 303 302 300 299 299 300 300 301 302 301 302 302 301 302 300 298 297 295 295 294 291 288 286 285 284 284 285 287
321 322 322 323 323 321 318 316 313 312 314 312 307 306 304 302 301 300 299 298 297 298 299 299 300 301 302 302 300 298 297 296 294 294 292 291 290 289 288 286 285 284 286
321 321 321 319 318 316 315 314 312 311 311 307 304 305 304 302 301 301 299 298 297 297 298 299 300 301 301 299 299 298 297 297 295 292 292 290 291 290 288 286 284 282 283
317 317 318 315 314 314 314 313 311 311 306 305 305 304 303 302 301 301 300 298 298 297 298 298 298 300 299 299 298 297 296 294 294 291 293 290 289 289 288 287 286 283 279
315 314 314 313 314 314 314 314 312 308 305 305 305 303 303 303 302 300 298 297 297 297 297 297 297 297 298 299 297 296 296 293 292 293 291 290 290 289 289 286 287 286 284
313 312 312 313 314 314 313 313 311 306 304 304 303 303 302 302 302 299 298 297 297 297 296 297 296 296 296 296 294 294 293 293 291 293 290 290 291 287 287 287 286 285 284
313 312 313 313 314 313 312 311 309 305 304 304 303 302 303 302 300 299 297 297 296 297 296 296 296 296 296 294 294 292 292 291 290 290 290 289 290 286 286 285 284 284 283
313 313 313 313 312 312 311 310 308 305 304 303 301 301 301 302 299 298 297 297 296 295 295 296 296 295 295 294 294 293 292 291 290 290 288 288 287 283 283 282 281 281 283
313 313 312 313 312 311 311 309 307 306 304 302 300 300 300 301 299 298 297 297 296 295 295 296 296 295 294 293 293 291 290 290 290 289 288 286 284 281 280 280 279 280 278
311 312 312 313 311 310 310 308 306 305 304 301 299 300 300 300 299 298 298 297 296 295 295 295 295 294 294 293 289 289 288 287 286 286 287 285 285 285 282 280 278 278 277
307 311 313 313 311 311 310 307 305 304 302 300 300 300 299 299 297 297 297 297 296 295 294 293 294 293 294 287 286 286 284 286 285 284 284 284 286 285 284 285 284 282 277
308 309 311 312 311 311 309 306 304 303 300 299 299 299 298 296 296 296 296 295 294 294 294 293 292 291 288 287 285 283 282 284 284 283 282 282 284 283 280 281 281 281 283
308 310 310 311 311 310 308 306 305 301 299 298 297 297 297 296 296 295 294 294 294 293 293 292 292 291 288 286 285 283 281 283 284 282 282 281 280 278 279 277 277 278 279
308 309 310 310 310 309 308 305 303 300 298 296 295 296 296 294 294 293 293 293 293 292 292 293 291 290 284 285 284 282 281 283 282 283 283 281 279 280 280 277 277 276 277
308 308 310 310 309 309 306 302 299 297 296 297 296 295 294 293 292 292 292 293 292 292 292 291 290 287 283 284 283 281 280 281 281 281 281 282 279 280 280 276 275 274 276
309 310 310 308 306 306 303 299 297 295 295 295 295 295 294 292 293 292 292 292 291 291 288 287 287 287 285 282 284 282 280 280 280 279 279 280 281 280 280 279 276 276 277
307 308 299 296 296 298 298 296 294 295 294 294 294 293 293 293 292 291 290 291 290 288 288 286 286 285 285 285 284 283 282 281 277 279 279 280 282 281 281 279 280 280 278
301 296 295 293 294 294 295 291 293 294 295 294 292 292 292 291 291 288 288 288 289 287 286 285 284 283 285 284 284 284 282 281 277 279 281 282 281 282 280 282 281 277 275
295 294 293 293 293 294 294 293 294 293 291 290 290 290 290 289 289 290 289 287 287 286 285 284 283 284 284 284 281 280 280 280 279 279 280 278 278 277 277 277 279 278 276
294 294 292 291 291 291 291 292 292 291 290 289 289 289 288 289 289 290 288 286 287 285 284 284 284 284 283 282 285 283 283 282 281 276 275 275 277 276 278 276 277 277 276
292 291 291 291 291 291 291 291 292 291 289 288 288 288 288 288 288 288 288 288 287 287 287 286 284 284 287 285 285 285 284 283 281 275 273 272 273 274 275 274 274 274 274

GFSMW_sfc_thetae_015.txt.gz
Theta_e
312 315 320 322 322 323 326 325 323 321 323 318 315 312 310 308 308 309 309 309 309 309 307 306 305 305 303 303 303 302 299 298 298 294 293 294 294 294 293 294 293 294 295
313 314 316 321 322 322 325 324 324 322 324 320 314 313 311 308 308 308 308 309 308 307 307 304 303 303 302 301 300 298 297 297 296 292 291 288 290 292 293 291 292 290 292
313 315 316 321 321 321 323 324 323 322 322 318 314 310 309 308 307 306 306 306 302 299 298 299 298 297 298 299 298 298 297 294 295 294 291 286 284 286 289 289 289 289 289
316 317 316 318 321 323 325 326 324 318 316 313 310 308 305 304 304 302 299 297 298 298 297 298 297 296 297 295 297 300 297 295 291 292 294 290 288 283 282 286 287 288 289
316 315 316 320 322 326 325 324 317 314 312 310 309 307 305 301 298 297 296 295 296 297 298 298 296 297 297 297 297 296 295 294 292 291 289 288 287 285 283 280 283 286 287
314 317 319 322 323 324 319 315 312 310 309 308 305 301 299 296 295 294 294 294 295 296 297 297 297 297 297 297 296 295 295 293 292 293 291 288 285 284 283 281 281 282 285
315 317 318 318 320 315 311 310 309 308 306 301 299 298 296 295 294 294 293 293 293 294 293 295 295 296 298 297 296 295 294 293 292 291 289 289 288 287 286 283 281 281 282
314 317 319 320 315 311 310 307 308 306 303 300 299 297 297 296 295 295 294 294 293 293 293 294 295 296 298 296 296 294 294 294 292 291 289 289 288 288 286 284 281 279 280
314 319 319 316 312 311 307 305 307 305 302 299 298 297 297 297 296 295 295 294 294 295 293 293 294 294 296 296 296 294 293 292 290 289 288 290 287 286 286 285 284 281 278
312 312 312 311 311 309 308 306 305 302 300 299 298 297 297 297 296 295 294 295 295 293 293 293 293 293 293 293 295 293 292 291 292 290 290 290 289 289 287 284 285 283 280
309 308 309 310 310 309 308 306 304 300 298 299 298 297 297 298 297 295 295 295 293 295 293 293 293 293 292 292 290 290 290 290 289 289 289 288 289 286 285 284 282 281 280
309 307 307 308 308 308 308 307 302 300 299 299 298 297 298 298 297 297 295 295 293 293 293 293 293 294 293 292 292 291 290 289 289 289 288 287 289 284 282 281 279 278 278
307 307 306 307 308 308 307 306 302 300 300 299 298 298 299 299 298 297 295 294 293 292 294 293 293 293 293 292 292 291 290 289 289 289 287 286 284 280 279 278 278 277 280
308 306 306 306 308 308 307 307 302 301 300 299 298 298 300 299 298 296 295 294 294 293 293 293 294 294 293 292 291 290 288 288 287 287 286 284 282 280 278 279 277 278 276
304 306 305 305 308 308 307 306 304 301 300 298 297 298 299 299 297 296 295 294 295 293 293 293 293 293 293 292 289 287 286 285 285 285 285 283 284 286 281 279 277 277 276
302 303 307 307 307 307 306 306 303 301 299 297 297 299 298 297 295 295 295 295 294 294 293 292 292 292 293 289 289 286 283 284 283 283 282 282 284 284 285 283 283 280 276
302 304 305 307 306 306 307 303 301 300 297 296 298 297 295 295 294 294 295 294 294 293 292 292 292 290 289 288 287 285 281 282 282 282 280 281 283 280 279 279 280 279 281
303 303 303 305 306 305 304 301 300 298 296 296 294 294 294 294 294 294 294 292 292 291 291 291 291 289 288 287 287 284 280 281 282 281 280 279 278 278 278 277 276 276 277
301 301 302 304 304 303 303 300 297 295 294 293 294 295 294 293 294 292 291 291 291 290 289 290 290 287 285 287 285 282 281 281 281 282 281 281 278 280 280 277 276 275 276
302 300 298 297 301 301 299 297 294 293 293 292 293 293 294 293 292 291 291 291 290 290 290 289 288 287 283 286 284 282 278 279 279 280 280 282 278 280 280 277 275 273 275
295 294 294 293 294 297 295 292 292 292 294 295 294 294 294 293 292 291 290 289 288 288 286 285 284 283 282 283 285 284 280 278 279 278 278 278 281 281 282 281 276 275 277
292 292 291 291 292 293 293 292 292 293 293 293 293 293 293 292 292 289 288 288 287 285 285 282 282 282 282 283 285 285 282 282 276 278 278 278 283 283 282 281 281 281 279
291 293 291 291 292 293 293 291 291 292 293 293 293 292 291 291 290 288 286 285 285 282 284 283 282 281 282 281 285 285 284 283 276 277 278 282 283 282 281 282 282 279 275
291 291 290 289 289 291 292 292 293 292 291 289 289 289 288 288 288 288 287 285 281 280 282 281 281 281 281 279 279 280 281 281 279 278 278 277 278 275 276 276 278 277 275
290 291 290 289 289 290 290 290 290 289 288 287 287 287 285 286 286 287 286 284 284 283 281 280 281 283 280 280 282 281 278 277 278 273 271 272 272 274 276 275 275 275 274
290 289 289 288 289 290 289 289 289 288 286 286 285 283 283 283 285 284 284 286 286 286 287 286 283 281 285 286 286 285 284 283 282 278 272 269 268 270 273 273 273 271 272

GFSMW_sfc_thetae_018.txt.gz
Theta_e
316 321 321 321 319 318 323 322 318 319 320 316 312 308 307 306 306 306 307 307 307 306 305 303 303 302 301 300 300 298 297 296 295 292 292 292 292 291 291 291 290 291 292
312 318 319 319 319 321 324 321 319 320 319 316 312 310 308 305 305 306 306 306 305 304 302 301 298 298 299 298 298 297 295 295 294 291 289 286 289 290 290 289 290 287 289
310 315 317 317 319 321 323 322 320 319 321 315 311 307 306 305 304 303 304 299 298 297 298 297 296 295 295 294 294 296 295 293 292 291 290 285 283 284 287 287 287 287 288
312 313 316 317 319 322 324 323 322 320 321 315 311 308 306 304 303 301 297 295 297 297 297 297 296 296 296 294 295 297 294 292 290 290 292 289 288 282 280 285 285 287 288
311 311 317 318 319 322 321 322 321 318 317 312 313 308 303 302 298 295 294 294 295 296 297 296 296 295 297 296 295 294 293 292 290 289 288 287 285 284 282 279 282 284 285
312 313 318 319 319 321 322 321 315 313 313 309 306 306 300 297 294 293 292 293 294 295 295 296 295 295 296 295 294 294 293 292 291 290 289 287 285 283 282 280 280 280 283
312 314 317 318 320 319 314 312 311 309 309 306 302 299 296 295 294 293 292 293 293 292 291 293 293 295 296 296 295 294 293 292 290 290 289 288 287 286 285 282 281 280 281
314 316 318 319 319 315 311 310 310 306 304 302 300 298 296 295 294 294 293 293 293 293 293 294 295 294 296 296 294 293 292 292 291 290 289 288 287 287 285 283 281 279 280
313 315 316 317 315 310 306 308 307 303 302 301 299 298 296 296 296 294 294 293 293 294 295 293 294 293 293 294 294 292 292 291 290 288 288 287 286 286 286 285 284 281 275
312 314 315 312 311 308 306 306 306 302 303 301 299 299 297 297 296 294 293 295 295 294 294 294 293 292 292 292 292 291 290 289 289 289 288 287 288 288 286 284 284 282 279
312 314 312 311 309 307 306 306 305 302 301 302 299 297 295 296 295 294 295 294 293 294 294 294 292 293 292 292 291 290 289 289 288 288 287 287 288 286 284 282 281 279 278
312 312 311 310 308 307 306 305 304 302 301 298 297 297 298 298 296 294 294 295 294 294 294 292 293 293 292 292 291 290 290 289 288 288 288 288 289 284 281 280 278 278 277
307 308 309 309 308 308 307 305 304 301 299 298 299 297 298 297 296 295 295 293 294 293 293 292 292 292 292 292 291 290 290 289 288 289 287 287 285 281 280 279 277 277 279
307 304 306 308 309 309 308 307 303 300 300 298 298 297 298 298 297 295 293 292 292 291 291 292 292 293 293 292 291 289 287 287 287 286 285 284 282 280 279 278 277 277 276
304 304 303 302 305 305 306 306 300 300 300 299 298 298 299 299 297 293 292 292 292 292 293 292 293 293 293 292 290 288 286 285 284 284 284 283 283 286 281 278 277 276 275
300 302 304 303 305 305 304 305 301 301 299 298 297 299 299 296 294 292 292 292 293 294 292 292 292 291 292 291 290 287 284 284 283 282 282 281 284 285 285 283 282 279 275
300 301 304 304 303 304 305 304 302 300 298 296 298 298 296 294 294 293 292 293 293 293 293 292 291 290 290 290 290 288 282 283 282 281 280 281 282 281 279 280 280 278 280
299 299 299 304 304 304 305 303 300 297 294 295 295 295 294 293 294 293 292 293 292 290 289 289 290 289 289 289 288 286 282 282 282 281 280 279 278 278 278 277 276 276 276
298 295 294 295 300 302 301 297 295 293 293 293 294 294 294 292 292 291 292 291 291 290 288 289 289 288 286 288 287 283 280 282 281 281 281 280 278 280 282 278 276 276 276
293 292 293 294 294 294 296 293 293 292 291 292 292 293 292 292 292 292 291 291 289 289 289 288 288 288 285 287 286 283 280 280 279 280 280 282 279 282 281 277 275 273 275
292 292 292 291 291 293 293 292 292 291 293 293 294 294 294 293 293 292 291 289 287 286 285 285 285 284 283 283 286 286 280 279 279 279 278 279 282 282 282 282 277 275 277
291 291 290 290 291 292 291 291 290 293 293 294 294 294 294 293 292 289 288 287 286 284 284 282 283 280 282 284 286 286 283 282 278 279 279 278 282 282 283 281 282 282 280
290 291 291 291 290 291 292 291 290 292 294 293 292 292 291 290 289 286 285 284 284 281 281 280 278 280 281 281 285 286 285 284 278 278 279 280 282 283 281 283 282 279 276
289 289 289 288 289 291 291 290 291 291 289 288 287 287 286 286 286 286 286 283 280 279 281 281 280 279 280 282 281 281 283 282 280 278 279 277 278 274 275 275 278 277 275
289 288 287 287 287 289 288 289 288 288 286 286 286 285 283 284 284 284 284 283 283 282 282 281 280 278 278 282 286 283 280 280 280 273 270 271 272 274 275 274 275 274 274
288 287 287 287 287 287 287 287 288 287 285 285 284 282 281 281 282 283 283 286 286 286 286 286 283 281 284 286 286 286 285 284 281 276 270 273 271 273 274 272 272 272 271